CANX-2

Last updated on Mon Sep 21 2026 00:03:44 GMT+0000 (Coordinated Universal Time)

1 32790U 08021H 26263.43948280 .00003030 00000+0 21115-3 0 9997 2 32790 97.8749 245.1637 0011656 83.2296 277.0257 15.06173499999141
UTC large
Height (km)
Speed (km/s)
/
Latitude / Longitude
Inclination (degrees)
Orbital Period (minutes)
Azimuth
Elevation
Range (km)
Doppler Factor

Next 0 passes for location: London (51.5072 / 0.1276)

No passes found over London.
CANX-2